カタログに戻る

COSMOS 2251 DEB

運用中LEO
NORAD 34059·DEBRIS·🇷🇺 Russia

打ち上げ Jun 16, 1993 から Plesetsk Cosmodrome

Loading…

次のパス (今後24時間)

TLE

最新Source: Space-Track

元期: Sep 14, 2026, 08:05 UTC

1 34059U 93036JW  26257.33704772  .00001613  00000-0  38637-3 0  9998
2 34059  74.0387  25.6904 0017732  32.6430 355.9840 14.54271788924642

AllMySatでCOSMOS 2251 DEBをリアルタイム追跡

Download on the App Store